Terminal Aerodrome Forecast
Issued by NWS

Home | Current Version | Previous Version | Graphics & Text | Print | Product List | Glossary On
Versions: 1 2 3 4 5 6 7 8 9 10 11 12 13 14 15 16 17 18 19 20 21 22 23 24 25 26 27 28 29 30 31 32 33 34 35 36 37 38 39 40 41 42 43 44 45 46 47 48 49 50
000
FTUS43 KLOT 031136
TAFGYY
TAF
KGYY 031136Z 0312/0412 18009KT P6SM BKN100
     FM031530 20013G20KT P6SM BKN100
     FM032000 20015G23KT P6SM VCSH BKN080
     FM040000 19013KT P6SM BKN080 PROB30 0408/0411 -SHRA OVC045
     FM041100 19012KT 5SM -SHRA VCTS OVC040CB=

USA.gov is the U.S. government's official web portal to all federal, state and local government web resources and services.